Погода в Высоком

Беларусь     52°22′01″N   23°22′40″E
темп.,
°C
ветер,
м/с
пор.,
м/с
влажн.,
%
обл.,
%
осадки,
мм/ч
давл.,
гПа
погр.,
м
30 июня, чт
чт3000:00+20в37925 0.7 1015133
03:00+19в229213 1.9 101530
06:00+19вюв3490100 0.1 101564
09:00+23в3477100 0.3 1016281
12:00+28вюв4560100 0.0 1016868
15:00+30вюв454794 0.0 10151585
18:00+30в445163 0.0 10151761
21:00+25в51170100 0.0 1014263
1 июля, пт
пт100:00+22вюв411735 0.0 1016246
03:00+20вюв4108171 0.0 1016202
06:00+20вюв388767 0.0 1016180
09:00+24вюв586782 0.0 1017444
12:00+29юв68484 0.0 10161365
15:00+30юв674273 0.0 10161904
18:00+30юв574819 0.0 10151887
21:00+25юв49660 0.0 1016184
2 июля, сб
сб200:00+21юв38734 0.0 1017156
03:00+19в377450 0.0 1018141
06:00+20юв48644 0.0 1018261
09:00+22ююз45624 0.0 1019544
12:00+24зсз337386 1.3 1020999
15:00+21зсз6684100 1.4 1020505
18:00+19сз61093100 3.2 1021577
21:00+18сз51093100 3.9 1021573
3 июля, вс
вс300:00+17сз51093100 1.9 1021503
03:00+16сз489584 4.3 1022376
06:00+13сз4109319 0.0 1021282
09:00+17сз577432 0.0 1021467
12:00+21ссз555663 0.0 10211046
15:00+23с455886 0.0 10201397
18:00+21ссв346898 0.0 1020497
21:00+20с2276100 0.0 101946
4 июля, пн
пн400:00+19с1175100 0.0 101914
03:00+19сз2275100 0.0 101934
06:00+19сз117941 0.0 101821
09:00+21зсз23696 0.0 1019420
12:00+25зсз325127 0.0 10191553
15:00+27зсз22414 0.0 10181940
18:00+27з23390 0.0 10181903
21:00+23з11580 0.0 101811